Time,TemperatureF,DewpointF,PressureIn,WindDirection,WindDirectionDegrees,WindSpeedMPH,WindSpeedGustMPH,Humidity,HourlyPrecipIn,Conditions,Clouds,dailyrainin,SoftwareType,DateUTC
2013-02-23 00:01:00,36.0,27.0,30.16,NW,316,0.0,1.0,69,0.00,,,0.00,,2013-02-23 06:01:00,
2013-02-23 00:11:00,36.0,27.0,30.16,NW,316,0.0,1.0,69,0.00,,,0.00,,2013-02-23 06:11:00,
2013-02-23 00:22:00,36.0,26.0,30.16,NW,323,0.0,3.0,67,0.00,,,0.00,,2013-02-23 06:22:00,
2013-02-23 00:31:00,36.0,26.0,30.14,NE,34,0.0,1.0,66,0.00,,,0.00,,2013-02-23 06:31:00,
2013-02-23 00:41:00,36.0,26.0,30.14,NE,34,0.0,1.0,66,0.00,,,0.00,,2013-02-23 06:41:00,
2013-02-23 00:52:00,36.0,26.0,30.15,NW,309,0.0,1.0,66,0.00,,,0.00,,2013-02-23 06:52:00,
2013-02-23 01:01:00,36.0,26.0,30.14,SSW,198,0.0,2.0,67,0.00,,,0.00,,2013-02-23 07:01:00,
2013-02-23 01:11:00,36.0,26.0,30.14,NNW,330,0.0,3.0,66,0.00,,,0.00,,2013-02-23 07:11:00,
2013-02-23 01:21:00,36.0,26.0,30.14,NNW,330,0.0,3.0,66,0.00,,,0.00,,2013-02-23 07:21:00,
2013-02-23 01:31:00,36.0,26.0,30.13,NE,54,0.0,3.0,66,0.00,,,0.00,,2013-02-23 07:31:00,
2013-02-23 01:41:00,36.0,26.0,30.13,NE,54,0.0,3.0,66,0.00,,,0.00,,2013-02-23 07:41:00,
2013-02-23 01:52:00,35.0,25.0,30.13,North,8,0.0,3.0,66,0.00,,,0.00,,2013-02-23 07:52:00,
2013-02-23 02:01:00,35.0,25.0,30.13,ENE,78,0.0,1.0,66,0.00,,,0.00,,2013-02-23 08:01:00,
2013-02-23 02:11:00,35.0,25.0,30.13,ENE,78,0.0,1.0,66,0.00,,,0.00,,2013-02-23 08:11:00,
2013-02-23 02:21:00,35.0,25.0,30.13,NNE,19,0.0,1.0,67,0.00,,,0.00,,2013-02-23 08:21:00,
2013-02-23 02:31:00,35.0,25.0,30.12,North,354,0.0,4.0,67,0.00,,,0.00,,2013-02-23 08:31:00,
2013-02-23 02:41:00,35.0,25.0,30.12,North,354,0.0,4.0,67,0.00,,,0.00,,2013-02-23 08:41:00,
2013-02-23 02:52:00,35.0,25.0,30.11,NE,37,0.0,3.0,66,0.00,,,0.00,,2013-02-23 08:52:00,
2013-02-23 03:01:00,35.0,25.0,30.11,NNW,327,0.0,2.0,66,0.00,,,0.00,,2013-02-23 09:01:00,
2013-02-23 03:11:00,35.0,25.0,30.11,NNW,327,0.0,2.0,66,0.00,,,0.00,,2013-02-23 09:11:00,
2013-02-23 03:21:00,35.0,25.0,30.11,ENE,70,0.0,3.0,67,0.00,,,0.00,,2013-02-23 09:21:00,
2013-02-23 03:31:00,34.0,25.0,30.10,NNW,344,1.0,4.0,68,0.00,,,0.00,,2013-02-23 09:31:00,
2013-02-23 03:41:00,34.0,25.0,30.10,NNW,344,1.0,4.0,68,0.00,,,0.00,,2013-02-23 09:41:00,
2013-02-23 03:52:00,34.0,25.0,30.09,NNE,30,1.0,4.0,68,0.00,,,0.00,,2013-02-23 09:52:00,
2013-02-23 04:01:00,34.0,25.0,30.09,NNE,13,1.0,4.0,69,0.00,,,0.00,,2013-02-23 10:01:00,
2013-02-23 04:11:00,34.0,25.0,30.09,West,281,0.0,5.0,69,0.00,,,0.00,,2013-02-23 10:11:00,
2013-02-23 04:21:00,34.0,25.0,30.09,West,281,0.0,5.0,69,0.00,,,0.00,,2013-02-23 10:21:00,
2013-02-23 04:31:00,33.0,24.0,30.09,NNE,21,0.0,1.0,70,0.00,,,0.00,,2013-02-23 10:31:00,
2013-02-23 04:41:00,33.0,24.0,30.09,NNE,21,0.0,1.0,70,0.00,,,0.00,,2013-02-23 10:41:00,
2013-02-23 04:52:00,33.0,25.0,30.09,West,271,0.0,1.0,71,0.00,,,0.00,,2013-02-23 10:52:00,
2013-02-23 05:02:00,33.0,25.0,30.09,North,355,0.0,2.0,72,0.00,,,0.00,,2013-02-23 11:02:00,
2013-02-23 05:11:00,33.0,25.0,30.09,North,355,0.0,2.0,72,0.00,,,0.00,,2013-02-23 11:11:00,
2013-02-23 05:21:00,32.0,24.0,30.10,West,273,0.0,2.0,73,0.00,,,0.00,,2013-02-23 11:21:00,
2013-02-23 05:32:00,32.0,25.0,30.10,NNE,22,0.0,2.0,74,0.00,,,0.00,,2013-02-23 11:32:00,
2013-02-23 05:41:00,32.0,25.0,30.10,NNE,22,0.0,2.0,74,0.00,,,0.00,,2013-02-23 11:41:00,
2013-02-23 05:52:00,32.0,25.0,30.09,NE,41,0.0,4.0,74,0.00,,,0.00,,2013-02-23 11:52:00,
2013-02-23 06:01:00,31.0,24.0,30.11,ESE,108,0.0,4.0,74,0.00,,,0.00,,2013-02-23 12:01:00,
2013-02-23 06:11:00,31.0,24.0,30.11,ESE,108,0.0,4.0,74,0.00,,,0.00,,2013-02-23 12:11:00,
2013-02-23 06:21:00,31.0,24.0,30.11,NE,46,0.0,2.0,75,0.00,,,0.00,,2013-02-23 12:21:00,
2013-02-23 06:32:00,31.0,24.0,30.12,NE,41,0.0,1.0,76,0.00,,,0.00,,2013-02-23 12:32:00,
2013-02-23 06:42:00,31.0,24.0,30.12,NE,41,0.0,1.0,76,0.00,,,0.00,,2013-02-23 12:42:00,
2013-02-23 06:52:00,31.0,25.0,30.12,East,83,0.0,1.0,77,0.00,,,0.00,,2013-02-23 12:52:00,
2013-02-23 07:01:00,30.0,24.0,30.13,East,83,0.0,0.0,77,0.00,,,0.00,,2013-02-23 13:01:00,
2013-02-23 07:11:00,29.0,23.0,30.12,East,83,0.0,0.0,79,0.00,,,0.00,,2013-02-23 13:11:00,
2013-02-23 07:22:00,29.0,23.0,30.12,East,83,0.0,0.0,79,0.00,,,0.00,,2013-02-23 13:22:00,
2013-02-23 07:32:00,29.0,24.0,30.12,East,83,0.0,0.0,81,0.00,,,0.00,,2013-02-23 13:32:00,
2013-02-23 07:42:00,29.0,24.0,30.13,East,83,0.0,0.0,82,0.00,,,0.00,,2013-02-23 13:42:00,
2013-02-23 07:52:00,29.0,24.0,30.13,East,83,0.0,0.0,82,0.00,,,0.00,,2013-02-23 13:52:00,
2013-02-23 08:02:00,32.0,26.0,30.14,NE,39,0.0,0.0,77,0.00,,,0.00,,2013-02-23 14:02:00,
2013-02-23 08:11:00,32.0,26.0,30.14,NE,39,0.0,0.0,77,0.00,,,0.00,,2013-02-23 14:11:00,
2013-02-23 08:21:00,32.0,26.0,30.14,NE,39,0.0,0.0,77,0.00,,,0.00,,2013-02-23 14:21:00,
2013-02-23 08:32:00,35.0,26.0,30.15,WNW,285,0.0,3.0,69,0.00,,,0.00,,2013-02-23 14:32:00,
2013-02-23 08:42:00,35.0,26.0,30.15,WNW,285,0.0,3.0,69,0.00,,,0.00,,2013-02-23 14:42:00,
2013-02-23 08:52:00,36.0,26.0,30.16,ENE,65,0.0,3.0,66,0.00,,,0.00,,2013-02-23 14:52:00,
2013-02-23 09:01:00,37.0,26.0,30.16,West,280,0.0,2.0,63,0.00,,,0.00,,2013-02-23 15:01:00,
2013-02-23 09:11:00,37.0,26.0,30.16,West,280,0.0,2.0,63,0.00,,,0.00,,2013-02-23 15:11:00,
2013-02-23 09:21:00,37.0,26.0,30.16,SSW,194,0.0,2.0,63,0.00,,,0.00,,2013-02-23 15:21:00,
2013-02-23 09:31:00,37.0,26.0,30.16,SSW,194,0.0,2.0,63,0.00,,,0.00,,2013-02-23 15:31:00,
2013-02-23 09:41:00,37.0,26.0,30.16,SSW,194,0.0,2.0,63,0.00,,,0.00,,2013-02-23 15:41:00,
2013-02-23 09:51:00,38.0,25.0,30.15,ENE,61,1.0,3.0,60,0.00,,,0.00,,2013-02-23 15:51:00,
2013-02-23 10:01:00,39.0,26.0,30.16,NNW,342,0.0,2.0,59,0.00,,,0.00,,2013-02-23 16:01:00,
2013-02-23 10:11:00,39.0,26.0,30.16,NNW,342,0.0,2.0,59,0.00,,,0.00,,2013-02-23 16:11:00,
2013-02-23 10:21:00,41.0,27.0,30.16,WNW,300,0.0,1.0,57,0.00,,,0.00,,2013-02-23 16:21:00,
2013-02-23 10:31:00,41.0,27.0,30.17,SW,221,0.0,4.0,56,0.00,,,0.00,,2013-02-23 16:31:00,
2013-02-23 10:42:00,41.0,27.0,30.17,SW,221,0.0,4.0,56,0.00,,,0.00,,2013-02-23 16:42:00,
2013-02-23 10:51:00,41.0,27.0,30.16,WNW,290,1.0,6.0,56,0.00,,,0.00,,2013-02-23 16:51:00,
2013-02-23 11:01:00,42.0,28.0,30.17,WSW,255,1.0,5.0,57,0.00,,,0.00,,2013-02-23 17:01:00,
2013-02-23 11:11:00,43.0,28.0,30.17,NNW,330,1.0,6.0,55,0.00,,,0.00,,2013-02-23 17:11:00,
2013-02-23 11:21:00,43.0,28.0,30.17,NNW,330,1.0,6.0,55,0.00,,,0.00,,2013-02-23 17:21:00,
2013-02-23 11:31:00,43.0,28.0,30.17,West,266,2.0,5.0,55,0.00,,,0.00,,2013-02-23 17:31:00,
2013-02-23 11:42:00,43.0,28.0,30.17,West,266,2.0,5.0,55,0.00,,,0.00,,2013-02-23 17:42:00,
2013-02-23 11:52:00,43.0,28.0,30.16,WSW,257,0.0,5.0,55,0.00,,,0.00,,2013-02-23 17:52:00,
2013-02-23 12:01:00,43.0,28.0,30.16,NNW,330,0.0,4.0,54,0.00,,,0.00,,2013-02-23 18:01:00,
2013-02-23 12:12:00,43.0,28.0,30.16,NNW,330,0.0,4.0,54,0.00,,,0.00,,2013-02-23 18:12:00,
2013-02-23 12:21:00,44.0,28.0,30.16,NW,307,2.0,4.0,52,0.00,,,0.00,,2013-02-23 18:21:00,
2013-02-23 12:32:00,45.0,28.0,30.15,WNW,284,1.0,5.0,51,0.00,,,0.00,,2013-02-23 18:32:00,
2013-02-23 12:42:00,45.0,28.0,30.15,WNW,284,1.0,5.0,51,0.00,,,0.00,,2013-02-23 18:42:00,
2013-02-23 12:51:00,46.0,29.0,30.14,SSW,210,0.0,6.0,51,0.00,,,0.00,,2013-02-23 18:51:00,
2013-02-23 13:01:00,46.0,27.0,30.13,SSW,197,1.0,6.0,48,0.00,,,0.00,,2013-02-23 19:01:00,
2013-02-23 13:11:00,47.0,27.0,30.12,WSW,252,1.0,5.0,46,0.00,,,0.00,,2013-02-23 19:11:00,
2013-02-23 13:21:00,47.0,27.0,30.12,WSW,252,1.0,5.0,46,0.00,,,0.00,,2013-02-23 19:21:00,
2013-02-23 13:32:00,48.0,28.0,30.11,West,270,0.0,5.0,46,0.00,,,0.00,,2013-02-23 19:32:00,
2013-02-23 13:41:00,48.0,28.0,30.11,West,270,0.0,5.0,46,0.00,,,0.00,,2013-02-23 19:41:00,
2013-02-23 13:52:00,48.0,28.0,30.09,NE,44,0.0,3.0,46,0.00,,,0.00,,2013-02-23 19:52:00,
2013-02-23 14:01:00,49.0,28.0,30.07,ENE,62,1.0,5.0,44,0.00,,,0.00,,2013-02-23 20:01:00,
2013-02-23 14:11:00,49.0,28.0,30.07,ENE,62,1.0,5.0,44,0.00,,,0.00,,2013-02-23 20:11:00,
2013-02-23 14:21:00,50.0,29.0,30.06,NNW,340,0.0,3.0,45,0.00,,,0.00,,2013-02-23 20:21:00,
2013-02-23 14:32:00,50.0,29.0,30.06,ENE,68,0.0,4.0,44,0.00,,,0.00,,2013-02-23 20:32:00,
2013-02-23 14:41:00,50.0,29.0,30.06,ENE,68,0.0,4.0,44,0.00,,,0.00,,2013-02-23 20:41:00,
2013-02-23 14:52:00,50.0,28.0,30.05,SW,219,2.0,5.0,42,0.00,,,0.00,,2013-02-23 20:52:00,
2013-02-23 15:01:00,51.0,29.0,30.05,East,79,0.0,4.0,43,0.00,,,0.00,,2013-02-23 21:01:00,
2013-02-23 15:11:00,52.0,30.0,30.03,South,184,0.0,3.0,42,0.00,,,0.00,,2013-02-23 21:11:00,
2013-02-23 15:22:00,52.0,30.0,30.03,South,184,0.0,3.0,42,0.00,,,0.00,,2013-02-23 21:22:00,
2013-02-23 15:32:00,53.0,29.0,30.03,SW,222,0.0,1.0,40,0.00,,,0.00,,2013-02-23 21:32:00,
2013-02-23 15:42:00,53.0,29.0,30.03,SW,222,0.0,1.0,40,0.00,,,0.00,,2013-02-23 21:42:00,
2013-02-23 15:51:00,53.0,29.0,30.03,ESE,122,0.0,5.0,40,0.00,,,0.00,,2013-02-23 21:51:00,
2013-02-23 16:01:00,53.0,29.0,30.03,SW,232,2.0,6.0,40,0.00,,,0.00,,2013-02-23 22:01:00,
2013-02-23 16:11:00,53.0,31.0,30.03,WNW,300,0.0,6.0,42,0.00,,,0.00,,2013-02-23 22:11:00,
2013-02-23 16:21:00,53.0,31.0,30.03,WNW,300,0.0,6.0,42,0.00,,,0.00,,2013-02-23 22:21:00,
2013-02-23 16:31:00,54.0,31.0,30.03,WSW,252,0.0,6.0,41,0.00,,,0.00,,2013-02-23 22:31:00,
2013-02-23 16:42:00,54.0,31.0,30.03,WSW,252,0.0,6.0,41,0.00,,,0.00,,2013-02-23 22:42:00,
2013-02-23 16:51:00,54.0,31.0,30.02,SSW,205,0.0,2.0,41,0.00,,,0.00,,2013-02-23 22:51:00,
2013-02-23 17:01:00,54.0,31.0,30.02,West,259,0.0,4.0,41,0.00,,,0.00,,2013-02-23 23:01:00,
2013-02-23 17:11:00,53.0,30.0,30.02,WSW,238,0.0,3.0,41,0.00,,,0.00,,2013-02-23 23:11:00,
2013-02-23 17:21:00,53.0,30.0,30.02,WSW,238,0.0,3.0,41,0.00,,,0.00,,2013-02-23 23:21:00,
2013-02-23 17:31:00,54.0,31.0,30.02,SW,221,0.0,0.0,41,0.00,,,0.00,,2013-02-23 23:31:00,
2013-02-23 17:42:00,54.0,31.0,30.02,SW,221,0.0,0.0,41,0.00,,,0.00,,2013-02-23 23:42:00,
2013-02-23 17:52:00,53.0,31.0,30.01,SSW,206,0.0,1.0,42,0.00,,,0.00,,2013-02-23 23:52:00,
2013-02-23 18:01:00,51.0,30.0,30.01,WNW,297,0.0,0.0,45,0.00,,,0.00,,2013-02-24 00:01:00,
2013-02-23 18:11:00,50.0,31.0,30.01,North,354,0.0,1.0,47,0.00,,,0.00,,2013-02-24 00:11:00,
2013-02-23 18:22:00,50.0,31.0,30.01,North,354,0.0,1.0,47,0.00,,,0.00,,2013-02-24 00:22:00,
2013-02-23 18:32:00,49.0,32.0,30.01,North,354,0.0,0.0,51,0.00,,,0.00,,2013-02-24 00:32:00,
2013-02-23 18:42:00,49.0,32.0,30.01,North,354,0.0,0.0,51,0.00,,,0.00,,2013-02-24 00:42:00,
2013-02-23 18:52:00,47.0,30.0,30.01,North,354,0.0,0.0,52,0.00,,,0.00,,2013-02-24 00:52:00,
2013-02-23 19:01:00,45.0,31.0,30.02,North,354,0.0,0.0,57,0.00,,,0.00,,2013-02-24 01:01:00,
2013-02-23 19:22:00,44.0,31.0,30.01,North,354,0.0,0.0,60,0.00,,,0.00,,2013-02-24 01:22:00,
2013-02-23 19:31:00,43.0,32.0,30.02,North,354,0.0,0.0,64,0.00,,,0.00,,2013-02-24 01:31:00,
2013-02-23 19:42:00,43.0,32.0,30.02,North,354,0.0,0.0,64,0.00,,,0.00,,2013-02-24 01:42:00,
2013-02-23 19:51:00,42.0,32.0,30.03,North,354,0.0,0.0,67,0.00,,,0.00,,2013-02-24 01:51:00,
2013-02-23 20:01:00,41.0,32.0,30.03,North,354,0.0,0.0,70,0.00,,,0.00,,2013-02-24 02:01:00,
2013-02-23 20:11:00,41.0,32.0,30.03,North,354,0.0,0.0,70,0.00,,,0.00,,2013-02-24 02:11:00,
2013-02-23 20:21:00,40.0,32.0,30.03,North,354,0.0,0.0,74,0.00,,,0.00,,2013-02-24 02:21:00,
2013-02-23 20:32:00,40.0,33.0,30.03,North,354,0.0,0.0,75,0.00,,,0.00,,2013-02-24 02:32:00,
2013-02-23 20:42:00,40.0,33.0,30.03,North,354,0.0,0.0,75,0.00,,,0.00,,2013-02-24 02:42:00,
2013-02-23 20:52:00,39.0,32.0,30.03,North,354,0.0,0.0,75,0.00,,,0.00,,2013-02-24 02:52:00,
2013-02-23 21:02:00,39.0,31.0,30.03,North,354,0.0,0.0,74,0.00,,,0.00,,2013-02-24 03:02:00,
2013-02-23 21:11:00,39.0,31.0,30.03,North,354,0.0,0.0,74,0.00,,,0.00,,2013-02-24 03:11:00,
2013-02-23 21:21:00,39.0,31.0,30.03,North,354,0.0,0.0,74,0.00,,,0.00,,2013-02-24 03:21:00,
2013-02-23 21:32:00,38.0,31.0,30.02,North,354,0.0,0.0,76,0.00,,,0.00,,2013-02-24 03:32:00,
2013-02-23 21:42:00,38.0,31.0,30.02,North,354,0.0,0.0,76,0.00,,,0.00,,2013-02-24 03:42:00,
2013-02-23 21:52:00,38.0,31.0,30.02,North,354,0.0,0.0,77,0.00,,,0.00,,2013-02-24 03:52:00,
2013-02-23 22:01:00,38.0,31.0,30.02,North,354,0.0,0.0,77,0.00,,,0.00,,2013-02-24 04:01:00,
2013-02-23 22:11:00,38.0,31.0,30.02,North,354,0.0,0.0,77,0.00,,,0.00,,2013-02-24 04:11:00,
2013-02-23 22:21:00,38.0,31.0,30.01,North,354,0.0,0.0,76,0.00,,,0.00,,2013-02-24 04:21:00,
2013-02-23 22:32:00,39.0,31.0,30.01,ENE,72,0.0,2.0,73,0.00,,,0.00,,2013-02-24 04:32:00,
2013-02-23 22:42:00,39.0,31.0,30.01,ENE,72,0.0,2.0,73,0.00,,,0.00,,2013-02-24 04:42:00,
2013-02-23 22:52:00,41.0,31.0,30.00,ENE,70,0.0,2.0,68,0.00,,,0.00,,2013-02-24 04:52:00,
2013-02-23 23:01:00,41.0,31.0,30.01,East,86,0.0,1.0,66,0.00,,,0.00,,2013-02-24 05:01:00,
2013-02-23 23:11:00,40.0,31.0,30.01,East,86,0.0,0.0,69,0.00,,,0.00,,2013-02-24 05:11:00,
2013-02-23 23:22:00,40.0,31.0,30.01,East,86,0.0,0.0,69,0.00,,,0.00,,2013-02-24 05:22:00,
2013-02-23 23:32:00,38.0,30.0,30.01,East,86,0.0,0.0,73,0.00,,,0.00,,2013-02-24 05:32:00,
2013-02-23 23:42:00,37.0,30.0,30.00,East,86,0.0,0.0,76,0.00,,,0.00,,2013-02-24 05:42:00,
2013-02-23 23:52:00,37.0,30.0,30.00,East,86,0.0,0.0,76,0.00,,,0.00,,2013-02-24 05:52:00,